Regional Weather Roundup
Issued by NWS

Home | Current Version | Previous Version | Graphics & Text | Print | Product List | Glossary On
Versions: 1 2 3 4 5 6 7 8 9 10 11 12 13 14 15 16 17 18 19 20 21 22 23 24 25 26 27 28 29 30 31 32 33 34 35 36 37 38 39 40 41 42 43 44 45 46 47 48 49 50
000
ASUS43 KIND 130959
RWRIN

WEATHER ROUNDUP FOR INDIANA
NATIONAL WEATHER SERVICE INDIANAPOLIS IN
500 AM EST WED DEC 13 2017

NOTE: "FAIR" INDICATES FEW OR NO CLOUDS BELOW 12,000 FEET WITH NO
SIGNIFICANT WEATHER AND/OR OBSTRUCTIONS TO VISIBILITY.

* - STATION DOES NOT REPORT WEATHER SUCH AS PRECIPITATION OR FOG.

+ - STATION NOT QUALITY CONTROLLED BY THE NATIONAL WEATHER SERVICE.
    USE DATA WITH CAUTION...ESPECIALLY DEWPOINT AND RELATIVE
    HUMIDITY OBSERVATIONS.

INZ001>003-010>013-019-020-131100-
NORTHWEST INDIANA

CITY           SKY/WX    TMP DP  RH WIND       PRES   REMARKS
MONTICELLO +   CLOUDY    21   9  59 S9        29.86F WCI  10

$$

LMZ046-743>745-131100-
SOUTHERN LAKE MICHIGAN

STATION/POSITION TIME  TEMP    WIND        PRES    WAVE
                       AIR SEA DIR/SP/G            HT
                 (UTC) (F)     (DEG/KT/KT) (MB)    (FT)
BURNS HARBOR     0940   22     180/ 10/ 14 1010.5F
MICHIGAN CITY    0930   22     170/ 10/ 13   N/A

$$

INZ004-005-014>016-021>024-131100-
NORTH CENTRAL INDIANA

CITY           SKY/WX    TMP DP  RH WIND       PRES   REMARKS
GOSHEN         CLOUDY    17   9  70 SW9       29.84F WCI   6
PERU/GRISSOM   CLOUDY    20   9  63 S8        29.85F WCI  10
SOUTH BEND     CLOUDY    17  10  74 S9        29.83F WCI   6

$$

INZ006>009-017-018-025>027-131100-
NORTHEAST INDIANA

CITY           SKY/WX    TMP DP  RH WIND       PRES   REMARKS
FORT WAYNE     CLOUDY    18  11  74 SW7       29.87F WCI   9
KENDALLVILLE + CLOUDY    15  10  80 SW6       29.85S WCI   6

$$

INZ028-029-035-036-043>045-051>053-131100-
WEST CENTRAL INDIANA

CITY           SKY/WX    TMP DP  RH WIND       PRES   REMARKS
LAFAYETTE      CLOUDY    21  11  65 S5        29.88F WCI  15
TERRE HAUTE    CLOUDY    21   9  59 SE3       29.93F

$$

INZ030>032-037>040-046>048-054>057-064-065-131100-
CENTRAL INDIANA

CITY           SKY/WX    TMP DP  RH WIND       PRES   REMARKS
INDIANAPOLIS   MOCLDY    19   8  62 S9        29.91F WCI   8
-EAGLE CREEK   CLOUDY    20   7  57 S6        29.90F WCI  12
KOKOMO +       CLOUDY    19  11  70 S9        29.88F WCI   8
MT COMFORT *+  CLOUDY    18  12  79 S6        29.92S WCI   9
SHELBYVILLE    CLOUDY    20   9  62 S8        29.92F WCI  10

$$

INZ033-034-041-042-049-050-058-059-131100-
EAST CENTRAL INDIANA

CITY           SKY/WX    TMP DP  RH WIND       PRES   REMARKS
MUNCIE         CLOUDY    19   9  65 SW8       29.90F WCI   9
RICHMOND +     MOCLDY    14  10  85 SW7       29.91F WCI   4

$$

INZ060-061-067>069-081>083-085>088-131100-
SOUTHWEST INDIANA

CITY           SKY/WX    TMP DP  RH WIND       PRES   REMARKS
EVANSVILLE     CLOUDY    22  13  68 S6        29.98F WCI  14
HUNTINGBURG +  CLOUDY    21  13  71 S7        29.98F WCI  12

$$

INZ062-063-066-070>080-084-089>092-131100-
SOUTH CENTRAL AND SOUTHEAST INDIANA

CITY           SKY/WX    TMP DP  RH WIND       PRES   REMARKS
BLOOMINGTON    CLOUDY    17   8  67 CALM      29.93F
MADISON *+     PTCLDY    21  10  63 CALM      29.97F
SEYMOUR +      PTCLDY    18   9  68 CALM      29.97F

$$





USA.gov is the U.S. government's official web portal to all federal, state and local government web resources and services.